Flight Track Log - Related Links

Times and Time Zones

All times are in EDT time to prevent confusion due to time zone crossing. See the UCA9879 flight status page for this flight to view local times or setup timezone preferences in your user account.

Time Position Orientation Groundspeed Altitude Reporting Facility
EDT Latitude Longitude Course Direction KTS MPH feet Rate Location/Type
Wed 11:12:22 PM 40.8639 -77.8589 105° East 242 278 16,000  Level New York Center
Wed 11:13:23 PM 40.8525 -77.8028 105° East 210 242 16,000 -6,661 Level New York Center
Wed 11:14:11 PM 40.8094 -77.9011 240° Southwest 188 216 3,900 -5,560 Descending Cleveland Center
Wed 11:15:12 PM 40.8253 -77.9431 297° West 152 175 5,900 1,869 Climbing Cleveland Center
Wed 11:16:13 PM 40.8653 -77.9628 340° North 151 174 7,700 1,574 Climbing Cleveland Center
Wed 11:17:14 PM 40.8978 -78.0011 318° Northwest 175 201 9,100 1,377 Climbing Cleveland Center
Wed 11:18:15 PM 40.9142 -78.0675 288° West 192 221 10,500 1,512 Climbing Cleveland Center
Wed 11:19:17 PM 40.9272 -78.1367 284° West 195 224 12,200 1,561 Climbing Cleveland Center
Wed 11:20:18 PM 40.9414 -78.2000 287° West 184 212 13,700 1,377 Climbing Cleveland Center
Wed 11:21:19 PM 40.9561 -78.2708 285° West 190 219 15,000 1,131 Climbing Cleveland Center
Wed 11:22:20 PM 40.9717 -78.3431 286° West 201 231 16,000 492 Climbing Cleveland Center
Wed 11:23:21 PM 40.9889 -78.4253 286° West 226 260 16,000  Level Cleveland Center
Wed 11:24:21 PM 41.0067 -78.5106 285° West 236 272 16,000  Level Cleveland Center
Wed 11:25:22 PM 41.0225 -78.5953 284° West 237 273 16,000  Level Cleveland Center
Wed 11:26:23 PM 41.0439 -78.6972 286° West 240 276 16,000  Level Cleveland Center
Wed 11:27:24 PM 41.0617 -78.7850 285° West 245 282 16,000  Level Cleveland Center
Wed 11:28:25 PM 41.0789 -78.8697 285° West 244 281 16,000  Level Cleveland Center
Wed 11:29:26 PM 41.0961 -78.9567 285° West 243 280 16,000  Level Cleveland Center
Wed 11:30:27 PM 41.1139 -79.0431 285° West 243 280 16,000  Level Cleveland Center
Wed 11:31:28 PM 41.1322 -79.1350 285° West 244 281 16,000  Level Cleveland Center
Wed 11:32:29 PM 41.1500 -79.2225 285° West 247 284 16,000  Level Cleveland Center
Wed 11:33:30 PM 41.1669 -79.3056 285° West 246 283 16,000  Level Cleveland Center
Wed 11:34:30 PM 41.1844 -79.3939 285° West 247 284 16,000  Level Cleveland Center
Wed 11:35:31 PM 41.2006 -79.4806 284° West 246 283 16,000  Level Cleveland Center
Wed 11:36:32 PM 41.2181 -79.5681 285° West 246 283 16,000 49 Level Cleveland Center
Wed 11:37:33 PM 41.2356 -79.6594 284° West 246 283 16,100 -49 Climbing Cleveland Center
Wed 11:38:34 PM 41.2533 -79.7478 285° West 247 284 15,900 -98 Descending Cleveland Center
Wed 11:39:35 PM 41.2700 -79.8375 284° West 248 285 15,900  Level Cleveland Center
Wed 11:40:35 PM 41.2911 -79.9439 285° West 249 287 15,900  Level Cleveland Center
Wed 11:41:36 PM 41.3078 -80.0292 285° West 249 287 15,900  Level Cleveland Center
Wed 11:42:37 PM 41.3233 -80.1178 283° West 249 287 15,900  Level Cleveland Center
Wed 11:43:38 PM 41.3414 -80.2058 285° West 249 287 15,900  Level Cleveland Center
Wed 11:44:39 PM 41.3578 -80.2944 284° West 249 287 15,900 -248 Level Cleveland Center
Wed 11:45:39 PM 41.3756 -80.3864 284° West 248 285 15,400 -645 Descending Cleveland Center
Wed 11:46:40 PM 41.3922 -80.4758 284° West 248 285 14,600 -836 Descending Cleveland Center
Wed 11:47:41 PM 41.4089 -80.5633 284° West 245 282 13,700 -885 Descending Cleveland Center
Wed 11:48:42 PM 41.4247 -80.6500 284° West 242 278 12,800 -843 Descending Cleveland Center
Wed 11:49:42 PM 41.4403 -80.7347 284° West 236 272 12,000 -818 Descending Cleveland Center
Wed 11:50:10 PM 41.4475 -80.7772 283° West 232 267 11,600 -885 Descending Cleveland Center
Wed 11:50:43 PM 41.4561 -80.8189 285° West 235 270 11,100 -1,000 Descending Cleveland Center
Wed 11:51:04 PM 41.4619 -80.8547 282° West 231 266 10,700 -885 Descending Cleveland Center
Wed 11:51:44 PM 41.4697 -80.9031 282° West 233 268 10,200 -885 Descending Cleveland Center
Wed 11:52:05 PM 41.4761 -80.9375 284° West 229 264 9,800 -900 Descending Cleveland Center
Wed 11:52:44 PM 41.4858 -80.9856 285° West 231 266 9,300 -700 Descending Cleveland Center
Wed 11:53:05 PM 41.4900 -81.0206 279° West 229 264 9,100 -197 Descending Cleveland Center
Wed 11:53:45 PM 41.5008 -81.0658 288° West 224 258 9,100 -98 Level Cleveland Center
Wed 11:54:06 PM 41.5047 -81.0953 280° West 212 244 9,000  Descending Cleveland Center
Wed 11:54:45 PM 41.5042 -81.1453 269° West 219 252 9,100 98 Climbing Cleveland Center
Wed 11:55:07 PM 41.4886 -81.1822 241° Southwest 240 276 9,100 -98 Level Cleveland Center
Wed 11:55:46 PM 41.4722 -81.2239 242° Southwest 238 274 9,000 -100 Descending Cleveland Center
Wed 11:56:07 PM 41.4567 -81.2608 241° Southwest 250 288 9,000 -197 Level Cleveland Center
Wed 11:56:47 PM 41.4394 -81.3047 242° Southwest 240 276 8,800 -590 Descending Cleveland Center
Wed 11:57:08 PM 41.4244 -81.3425 242° Southwest 247 284 8,400 -900 Descending Cleveland Center
Wed 11:57:47 PM 41.4061 -81.3856 240° Southwest 244 281 7,900 -900 Descending Cleveland Center
Wed 11:58:08 PM 41.3922 -81.4211 243° Southwest 240 276 7,500 -885 Descending Cleveland Center
Wed 11:58:48 PM 41.3778 -81.4622 245° Southwest 236 272 7,000 -985 Descending Cleveland Center
Wed 11:59:15 PM 41.3642 -81.5003 245° Southwest 218 251 6,400 -1,180 Descending Cleveland Center
Wed 11:59:49 PM 41.3508 -81.5364 244° Southwest 227 261 5,800 -1,200 Descending Cleveland Center
Thu 12:00:10 AM 41.3372 -81.5683 240° Southwest 231 266 5,300 -1,200 Descending Cleveland Center
Thu 12:00:49 AM 41.3208 -81.6128 244° Southwest 226 260 4,600 -1,200 Descending Cleveland Center
Thu 12:01:10 AM 41.3094 -81.6419 243° Southwest 223 257 4,100 -590 Descending Cleveland Center
Thu 12:01:50 AM 41.2972 -81.6747 244° Southwest 225 259 4,000 -98 Descending Cleveland Center
Thu 12:02:11 AM 41.2817 -81.7156 243° Southwest 216 249 4,000  Level Cleveland Center
Thu 12:02:50 AM 41.2686 -81.7656 251° West 221 254 4,000  Level Cleveland Center
Thu 12:03:12 AM 41.2603 -81.7900 246° West 215 247 4,000  Level Cleveland Center
Thu 12:03:51 AM 41.2461 -81.8417 250° West 220 253 4,000 -100 Level Cleveland Center
Thu 12:04:12 AM 41.2383 -81.8672 248° West 220 253 3,900  Descending Cleveland Center
Thu 12:04:52 AM 41.2308 -81.9183 259° West 218 251 4,000 98 Climbing Cleveland Center
Thu 12:05:13 AM 41.2272 -81.9431 259° West 214 246 4,000  Level Cleveland Center
Thu 12:05:52 AM 41.2197 -81.9972 260° West 215 247 4,000  Level Cleveland Center
Thu 12:06:13 AM 41.2156 -82.0219 257° West 212 244 4,000  Level Cleveland Center
Thu 12:06:53 AM 41.2175 -82.0725 273° West 215 247 4,000  Level Cleveland Center
Thu 12:07:14 AM 41.2306 -82.0856 323° Northwest 192 221 4,000 -500 Level Cleveland Center
Thu 12:07:53 AM 41.2561 -82.0781 12° North 198 228 3,500 -900 Descending Cleveland Center
Thu 12:08:14 AM 41.2769 -82.0600 33° Northeast 191 220 3,100 -492 Descending Cleveland Center
Thu 12:08:54 AM 41.2992 -82.0336 42° Northeast 197 227 3,000 -98 Descending Cleveland Center
Thu 12:09:15 AM 41.3108 -82.0125 54° Northeast 175 201 3,000  Level Cleveland Center
Thu 12:09:54 AM 41.3281 -81.9869 48° Northeast 175 201 3,000 -197 Level Cleveland Center
Thu 12:10:16 AM 41.3403 -81.9672 50° Northeast 145 167 2,800 -590 Descending Cleveland Center
Thu 12:10:55 AM 41.3519 -81.9497 48° Northeast 148 170 2,400 -700 Descending Cleveland Center
Thu 12:11:16 AM 41.3603 -81.9344 54° Northeast 111 128 2,100 -689 Descending Cleveland Center
Thu 12:11:56 AM 41.3717 -81.9192 45° Northeast 122 140 1,700 -689 Descending Cleveland Center
Thu 12:12:17 AM 41.3800 -81.9042 53° Northeast 123 142 1,400 -600 Descending Cleveland Center
Thu 12:12:56 AM 41.3919 -81.8878 46° Northeast 114 131 1,100 -360 Descending Cleveland Center
Thu 12:13:57 AM 41.4078 -81.8636 49° Northeast 94 108 800 -295 Descending Cleveland Center

Login

Don't have an account? Register now (free) for customized features, flight alerts, and more!